Weather History for Piney Island, NC

Change the Weather History Date:

Wednesday, February 13, 2013

  Actual Average (KMRH) Record (KMRH)
Temperature  
Mean Temperature 52 °F -  
Max Temperature 57 °F 55 °F 73 °F (1984)
Min Temperature 48 °F 33 °F 13 °F (1973)
Degree Days  
Heating Degree Days 12    
Growing Degree Days 2 (Base 50)    
Moisture  
Dew Point 50 °F    
Average Humidity 94    
Maximum Humidity 100    
Minimum Humidity 89    
Precipitation  
Precipitation 0.65 in - - ()
Sea Level Pressure  
Sea Level Pressure 29.77 in    
Wind  
Wind Speed 7 mph (NE)    
Max Wind Speed 17 mph    
Max Gust Speed 28 mph    
Visibility 7 miles    
Events Rain    
Averages and records for this station are not official NWS values.
T = Trace of Precipitation, MM = Missing Value Source: NWS Daily Summary

Daily Weather History Graph

Daily Weather History Graph

Search for Another Location

Airport:

Trip Planner

Search our weather history database for the weather conditions in past years. The results will help you decide how hot, cold, wet, or windy it might be!

Date:

Astronomy

Feb. 13, 2013 Rise Set
Actual Time 6:53 AM EST 5:46 PM EST
Civil Twilight 6:27 AM EST 6:12 PM EST
Nautical Twilight 5:57 AM EST 6:42 PM EST
Astronomical Twilight 5:28 AM EST 7:12 PM EST
Moon 8:32 AM EST (2/13) 9:35 PM EST (2/13)
Length of Visible Light 11h 45m
Length of Day
10h 53m
Waxing Crescent, 13% of the Moon is Illuminated
Feb 13
Waxing Crescent
Feb 17
First Quarter
Feb 25
Full
Mar 4
Last Quarter
Mar 11
New

Hourly Weather History & Observations

Time (EST) Temp. Dew Point Humidity Pressure Visibility Wind Dir Wind Speed Gust Speed Precip Events Conditions
12:56 AM 52.0 °F 48.9 °F 89% 30.00 in 9.0 mi South 4.6 mph - 0.05 in Rain Light Rain
1:56 AM 51.1 °F 48.9 °F 92% 29.96 in 10.0 mi North 4.6 mph - 0.06 in Rain Light Rain
2:56 AM 50.0 °F 46.9 °F 89% 29.91 in 10.0 mi ENE 5.8 mph - 0.05 in Rain Light Rain
3:56 AM 50.0 °F 48.9 °F 96% 29.88 in 6.0 mi East 4.6 mph - 0.08 in Rain Rain
4:56 AM 50.0 °F 46.9 °F 89% 29.88 in 6.0 mi Calm Calm - 0.10 in Rain Rain
5:06 AM 48.2 °F 46.4 °F 93% 29.85 in 2.5 mi East 8.1 mph - 0.08 in Rain Heavy Rain
5:16 AM 48.2 °F 48.2 °F 100% 29.85 in 4.0 mi NNE 5.8 mph - 0.11 in Rain Rain
5:56 AM 48.9 °F 48.0 °F 97% 29.84 in 5.0 mi East 8.1 mph - 0.16 in Rain Light Rain
6:06 AM 50.0 °F 48.2 °F 94% 29.82 in 8.0 mi ENE 5.8 mph - 0.00 in Rain Light Rain
6:56 AM 50.0 °F 48.0 °F 93% 29.83 in 4.0 mi NE 5.8 mph - 0.03 in Rain Light Rain
7:39 AM 50.0 °F 48.2 °F 94% 29.81 in 3.0 mi NE 5.8 mph - 0.01 in Rain Light Rain
7:52 AM 50.0 °F 48.2 °F 94% 29.80 in 2.5 mi NE 5.8 mph - 0.02 in Rain Light Rain
7:56 AM 50.0 °F 48.9 °F 96% 29.81 in 3.0 mi NNE 5.8 mph - 0.02 in Rain Light Rain
8:10 AM 50.0 °F 48.2 °F 94% 29.79 in 7.0 mi NNE 5.8 mph - 0.01 in Rain Light Rain
8:18 AM 50.0 °F 48.2 °F 94% 29.79 in 5.0 mi North 8.1 mph - 0.01 in Rain Light Rain
8:51 AM 50.0 °F 48.2 °F 94% 29.78 in 3.0 mi NNE 9.2 mph - 0.03 in Rain Light Rain
8:56 AM 50.0 °F 48.9 °F 96% 29.79 in 3.0 mi NNE 10.4 mph - 0.03 in Rain Light Rain
9:56 AM 50.0 °F 48.9 °F 96% 29.78 in 2.5 mi North 12.7 mph - 0.02 in Rain Light Rain
10:07 AM 50.0 °F 48.2 °F 94% 29.76 in 3.0 mi North 12.7 mph - 0.00 in Rain Light Rain
10:56 AM 51.1 °F 48.9 °F 92% 29.78 in 4.0 mi North 9.2 mph - 0.00 in Rain Light Rain
11:56 AM 52.0 °F 50.0 °F 93% 29.74 in 7.0 mi NE 4.6 mph - 0.01 in   Overcast
12:56 PM 52.0 °F 51.1 °F 97% 29.71 in 10.0 mi Calm Calm - N/A   Overcast
1:56 PM 53.1 °F 51.1 °F 93% 29.69 in 10.0 mi East 4.6 mph - N/A   Overcast
2:25 PM 53.6 °F 51.8 °F 94% 29.67 in 10.0 mi ESE 4.6 mph - N/A   Overcast
2:56 PM 53.1 °F 51.1 °F 93% 29.66 in 10.0 mi ESE 5.8 mph - N/A   Overcast
3:56 PM 54.0 °F 52.0 °F 93% 29.67 in 10.0 mi SSE 5.8 mph - N/A   Overcast
4:15 PM 55.4 °F 53.6 °F 94% 29.66 in 10.0 mi Calm Calm - N/A   Overcast
4:56 PM 57.9 °F 55.9 °F 93% 29.65 in 10.0 mi SSW 12.7 mph - 0.00 in   Overcast
5:03 PM 57.2 °F 55.4 °F 94% 29.63 in 10.0 mi SSW 10.4 mph 20.7 mph N/A   Overcast
5:56 PM 57.0 °F 55.9 °F 96% 29.66 in 8.0 mi SW 11.5 mph - N/A   Overcast
6:36 PM 57.2 °F 55.4 °F 94% 29.66 in 10.0 mi SW 13.8 mph - 0.00 in   Mostly Cloudy
6:56 PM 57.9 °F 55.9 °F 93% 29.68 in 10.0 mi SW 12.7 mph - 0.00 in   Mostly Cloudy
7:56 PM 57.9 °F 55.0 °F 90% 29.70 in 7.0 mi WSW 13.8 mph 27.6 mph 0.01 in Rain Rain
8:56 PM 55.9 °F - N/A% 29.72 in 10.0 mi West 12.7 mph - 0.02 in   Overcast
9:56 PM 55.0 °F - N/A% 29.74 in 10.0 mi West 17.3 mph - 0.01 in   Scattered Clouds
10:56 PM 54.0 °F - N/A% 29.75 in 10.0 mi West 15.0 mph - N/A   Scattered Clouds
11:56 PM 53.1 °F - N/A% 29.78 in 10.0 mi West 13.8 mph - N/A   Scattered Clouds